TimeCDT,TemperatureF,Dew PointF,Humidity,Sea Level PressureIn,VisibilityMPH,Wind Direction,Wind SpeedMPH,Gust SpeedMPH,PrecipitationIn,Events,Conditions,WindDirDegrees,DateUTC
12:54 AM,46.0,42.1,86,29.64,10.0,Calm,Calm,-,N/A,,Clear,0,2013-03-16 05:54:00
1:54 AM,48.0,44.1,86,29.64,10.0,Calm,Calm,-,N/A,,Clear,0,2013-03-16 06:54:00
2:54 AM,48.0,43.0,83,29.64,10.0,Calm,Calm,-,N/A,,Clear,0,2013-03-16 07:54:00
3:54 AM,46.9,43.0,86,29.65,10.0,West,5.8,-,N/A,,Clear,280,2013-03-16 08:54:00
4:54 AM,55.9,45.0,67,29.67,10.0,WNW,10.4,-,N/A,,Clear,290,2013-03-16 09:54:00
5:54 AM,54.0,44.1,69,29.72,10.0,NW,12.7,-,N/A,,Clear,320,2013-03-16 10:54:00
6:54 AM,50.0,42.1,74,29.76,9.0,NNW,13.8,-,N/A,,Clear,330,2013-03-16 11:54:00
7:54 AM,45.0,39.0,80,29.83,5.0,NNW,10.4,20.7,N/A,,Haze,330,2013-03-16 12:54:00
8:54 AM,41.0,37.0,86,29.89,3.0,NNW,18.4,26.5,N/A,,Overcast,340,2013-03-16 13:54:00
9:16 AM,41.0,35.6,81,29.91,2.5,NNW,12.7,21.9,N/A,,Haze,340,2013-03-16 14:16:00
9:43 AM,41.0,35.6,81,29.93,3.0,NNW,12.7,24.2,N/A,,Haze,330,2013-03-16 14:43:00
9:54 AM,41.0,35.1,79,29.94,3.0,North,20.7,25.3,N/A,,Haze,350,2013-03-16 14:54:00
10:25 AM,42.8,35.6,76,29.93,4.0,NNW,8.1,-,N/A,,Haze,330,2013-03-16 15:25:00
10:54 AM,43.0,36.0,76,29.94,5.0,North,13.8,-,N/A,,Haze,350,2013-03-16 15:54:00
11:54 AM,45.0,36.0,71,29.96,6.0,North,12.7,18.4,N/A,,Haze,350,2013-03-16 16:54:00
12:54 PM,45.0,36.0,71,30.00,6.0,North,12.7,-,N/A,,Haze,360,2013-03-16 17:54:00
1:54 PM,44.1,35.1,71,30.00,6.0,NNE,13.8,-,N/A,,Haze,20,2013-03-16 18:54:00
2:54 PM,44.1,34.0,68,30.00,6.0,North,11.5,-,0.00,,Haze,350,2013-03-16 19:54:00
3:54 PM,44.1,34.0,68,30.00,7.0,NNE,11.5,-,N/A,,Overcast,30,2013-03-16 20:54:00
4:54 PM,43.0,34.0,71,30.02,6.0,North,11.5,-,0.00,Rain,Light Rain,350,2013-03-16 21:54:00
5:54 PM,42.1,34.0,73,30.03,5.0,NNE,6.9,-,0.00,Rain,Light Rain,20,2013-03-16 22:54:00
6:54 PM,41.0,35.1,79,30.04,6.0,North,4.6,-,0.00,Rain,Light Rain,10,2013-03-16 23:54:00
7:15 PM,41.0,35.6,81,30.03,8.0,NNE,6.9,-,0.01,Rain,Light Rain,30,2013-03-17 00:15:00
7:54 PM,41.0,34.0,76,30.03,10.0,NE,6.9,-,0.01,,Overcast,50,2013-03-17 00:54:00
8:54 PM,39.9,35.1,83,30.05,10.0,NE,4.6,-,0.00,Rain,Light Rain,40,2013-03-17 01:54:00
9:23 PM,39.2,33.8,81,30.06,10.0,NNE,4.6,-,0.00,Rain,Light Rain,20,2013-03-17 02:23:00
9:54 PM,39.9,34.0,79,30.06,10.0,NNE,8.1,-,0.00,,Overcast,30,2013-03-17 02:54:00
10:02 PM,39.2,33.8,81,30.04,10.0,NNE,8.1,-,N/A,,Overcast,30,2013-03-17 03:02:00
10:54 PM,39.9,32.0,73,30.06,10.0,NE,11.5,-,N/A,,Overcast,50,2013-03-17 03:54:00
11:02 PM,39.2,32.0,75,30.06,10.0,NE,8.1,-,N/A,,Overcast,40,2013-03-17 04:02:00
11:54 PM,39.0,32.0,76,30.06,10.0,NE,6.9,-,N/A,,Overcast,40,2013-03-17 04:54:00